Kosice, Slovakia

1:51 AM CET on December 05, 2016 (GMT +0100)
Kosice

Weather History for LZKZ - January, 2013

Change the Weather History Date:

Sunday, January 6, 2013

  Actual Average Record
Temperature  
Mean Temperature 33 °F -  
Max Temperature 38 °F - - ()
Min Temperature 28 °F - - ()
Degree Days  
Heating Degree Days 32    
Moisture  
Dew Point 20 °F    
Average Humidity 54    
Maximum Humidity 86    
Minimum Humidity 27    
Precipitation  
Precipitation 0.01 in - - ()
Sea Level Pressure  
Sea Level Pressure 30.07 in    
Wind  
Wind Speed 12 mph ()    
Max Wind Speed 24 mph    
Max Gust Speed 37 mph    
Visibility 8.4 miles    
Events Snow    
T = Trace of Precipitation, MM = Missing Value Source: Averaged Metar Reports

Daily Weather History Graph

Daily Weather History Graph

Search for Another Location

Airport or City:

Trip Planner

Search our weather history database for the weather conditions in past years. The results will help you decide how hot, cold, wet, or windy it might be!

Date:

Astronomy

Jan. 06, 2013 Rise Set
Actual Time 7:26 AM CET 3:55 PM CET
Civil Twilight 6:50 AM CET 4:31 PM CET
Nautical Twilight 6:10 AM CET 5:11 PM CET
Astronomical Twilight 5:32 AM CET 5:49 PM CET
Moon 1:06 AM CET (1/6) 11:21 AM CET (1/6)
Length of Visible Light 9h 41m
Length of Day
8h 28m
Waning Crescent, 36% of the Moon is Illuminated
Jan 6
Waning Crescent
Jan 11
New
Jan 19
First Quarter
Jan 27
Full
Feb 3
Last Quarter

Hourly Weather History & Observations

Time (CET) Temp. Windchill Dew Point Humidity Pressure Visibility Wind Dir Wind Speed Gust Speed Precip Events Conditions
12:00 AM 37 °F - 23 °F 45% 30.12 in 19 mi North 15.7 mph - -   Mostly Cloudy
12:00 AM 37.4 °F 27.2 °F 23.0 °F 56% 30.09 in 6.2 mi North 19.6 mph - N/A   Mostly Cloudy
12:30 AM 37.4 °F 26.1 °F 23.0 °F 56% 30.09 in 6.2 mi North 24.2 mph 36.8 mph N/A   Mostly Cloudy
1:00 AM 36 °F - 22 °F 43% 30.13 in 19 mi North 17.9 mph - -   Mostly Cloudy
1:00 AM 35.6 °F 24.2 °F 21.2 °F 56% 30.09 in 6.2 mi North 21.9 mph - N/A   Mostly Cloudy
1:30 AM 35.6 °F 24.5 °F 21.2 °F 56% 30.09 in 6.2 mi North 20.7 mph 33.4 mph N/A   Mostly Cloudy
2:00 AM 36 °F - 21 °F 42% 30.14 in 19 mi North 22.4 mph - -   Mostly Cloudy
2:00 AM 35.6 °F 24.0 °F 21.2 °F 56% 30.09 in 6.2 mi North 23.0 mph 34.5 mph N/A   Mostly Cloudy
2:30 AM 35.6 °F 25.5 °F 21.2 °F 56% 30.09 in 6.2 mi North 17.3 mph 31.1 mph N/A   Mostly Cloudy
3:00 AM 36 °F - 20 °F 39% 30.15 in 19 mi North 13.4 mph - -   Mostly Cloudy
3:00 AM 35.6 °F 25.2 °F 21.2 °F 56% 30.09 in 6.2 mi North 18.4 mph - N/A   Mostly Cloudy
3:30 AM 35.6 °F 24.5 °F 19.4 °F 52% 30.09 in 6.2 mi North 20.7 mph 34.5 mph N/A   Mostly Cloudy
4:00 AM 35 °F - 19 °F 40% 30.16 in 19 mi North 13.4 mph - -   Mostly Cloudy
4:00 AM 35.6 °F 26.2 °F 19.4 °F 52% 30.12 in 6.2 mi North 15.0 mph - N/A   Mostly Cloudy
4:30 AM 35.6 °F 24.0 °F 19.4 °F 52% 30.12 in 6.2 mi North 23.0 mph 35.7 mph N/A   Mostly Cloudy
5:00 AM 35 °F - 18 °F 37% 30.16 in 19 mi North 11.2 mph - -   Mostly Cloudy
5:00 AM 35.6 °F 25.2 °F 17.6 °F 48% 30.12 in 6.2 mi NNW 18.4 mph - N/A   Mostly Cloudy
5:30 AM 35.6 °F 24.0 °F 17.6 °F 48% 30.12 in 6.2 mi North 23.0 mph 35.7 mph N/A   Mostly Cloudy
6:00 AM 35 °F - 18 °F 36% 30.17 in 19 mi North 13.4 mph - -   Mostly Cloudy
6:00 AM 35.6 °F 26.2 °F 17.6 °F 48% 30.12 in 6.2 mi North 15.0 mph - N/A   Mostly Cloudy
6:30 AM 35.6 °F 24.5 °F 15.8 °F 44% 30.12 in 6.2 mi North 20.7 mph - N/A   Mostly Cloudy
7:00 AM 34 °F - 16 °F 35% 30.18 in 19 mi North 13.4 mph - -   Mostly Cloudy
7:00 AM 33.8 °F 23.5 °F 15.8 °F 48% 30.12 in 6.2 mi North 16.1 mph - N/A   Mostly Cloudy
7:30 AM 33.8 °F 24.3 °F 17.6 °F 52% 30.12 in 6.2 mi North 13.8 mph - N/A   Mostly Cloudy
8:00 AM 34 °F - 17 °F 37% 30.18 in 19 mi NNW 6.7 mph - -   Mostly Cloudy
8:00 AM 33.8 °F 26.4 °F 15.8 °F 48% 30.12 in 6.2 mi NNW 9.2 mph - N/A   Mostly Cloudy
8:30 AM 33.8 °F 23.9 °F 14.0 °F 44% 30.12 in 6.2 mi North 15.0 mph - N/A   Scattered Clouds
9:00 AM 34 °F - 16 °F 33% 30.17 in 19 mi North 8.9 mph - -   Scattered Clouds
9:00 AM 33.8 °F 27.0 °F 15.8 °F 48% 30.12 in 6.2 mi North 8.1 mph - N/A   Partly Cloudy
9:30 AM 35.6 °F 29.9 °F 15.8 °F 44% 30.12 in 6.2 mi North 6.9 mph - N/A   Partly Cloudy
10:00 AM 37 °F - 16 °F 29% 30.16 in 28 mi North 6.7 mph - -   Scattered Clouds
10:00 AM 37.4 °F 33.8 °F 15.8 °F 41% 30.12 in 6.2 mi NNW 4.6 mph - N/A   Partly Cloudy
10:30 AM 37.4 °F 31.4 °F 14.0 °F 38% 30.12 in 6.2 mi NNW 8.1 mph - N/A   Partly Cloudy
11:00 AM 37 °F - 15 °F 27% 30.16 in 25 mi NNW 4.5 mph - -   Scattered Clouds
11:00 AM 37.4 °F 32.8 °F 14.0 °F 38% 30.09 in 6.2 mi NW 5.8 mph - N/A   Partly Cloudy
11:30 AM 37.4 °F 33.8 °F 14.0 °F 38% 30.09 in 6.2 mi NW 4.6 mph - N/A   Partly Cloudy
12:00 PM 37 °F - 16 °F 29% 30.13 in 28 mi West 4.5 mph - -   Scattered Clouds
12:00 PM 37.4 °F 34.9 °F 15.8 °F 41% 30.06 in 6.2 mi WSW 3.5 mph - N/A   Partly Cloudy
12:30 PM 37.4 °F - 14.0 °F 38% 30.06 in 6.2 mi Variable 2.3 mph - N/A   Partly Cloudy
1:00 PM 38 °F - 17 °F 29% 30.09 in 28 mi 2.2 mph - -   Scattered Clouds
1:00 PM 37.4 °F - 17.6 °F 45% 30.04 in 6.2 mi Variable 2.3 mph - N/A   Partly Cloudy
1:30 PM 37.4 °F - 14.0 °F 38% 30.04 in 6.2 mi Calm Calm - N/A   Partly Cloudy
2:00 PM 36 °F - 20 °F 39% 30.07 in 28 mi East 6.7 mph - -   Scattered Clouds
2:00 PM 35.6 °F 32.8 °F 19.4 °F 52% 30.04 in 6.2 mi East 3.5 mph - N/A   Partly Cloudy
2:30 PM 35.6 °F 31.7 °F 21.2 °F 56% 30.01 in 6.2 mi ESE 4.6 mph - N/A   Scattered Clouds
3:00 PM 34 °F - 22 °F 50% 30.06 in 28 mi SE 4.5 mph - -   Mostly Cloudy
3:00 PM 33.8 °F 30.8 °F 23.0 °F 65% 30.01 in - East 3.5 mph - N/A   Clear
3:30 PM 33.8 °F - 21.2 °F 60% 30.01 in - Variable 1.2 mph - N/A   Clear
4:00 PM 34 °F - 21 °F 47% 30.04 in 25 mi 2.2 mph - -   Mostly Cloudy
4:00 PM 33.8 °F - 21.2 °F 60% 29.98 in - Calm Calm - N/A   Clear
4:30 PM 32.0 °F - 23.0 °F 69% 29.98 in - Variable 1.2 mph - N/A   Clear
5:00 PM 32 °F - 23 °F 59% 30.03 in 19 mi 2.2 mph - -   Mostly Cloudy
5:00 PM 32.0 °F - 23.0 °F 69% 29.98 in - SSW 2.3 mph - N/A   Clear
5:30 PM 32.0 °F - 23.0 °F 69% 29.98 in 6.2 mi NW 1.2 mph - N/A   Overcast
6:00 PM 31 °F - 24 °F 66% 30.02 in 19 mi 2.2 mph - -   Overcast
6:00 PM 32.0 °F 28.7 °F 24.8 °F 75% 29.98 in 6.2 mi SSW 3.5 mph - N/A   Overcast
6:30 PM 32.0 °F 27.5 °F 23.0 °F 69% 29.98 in 6.2 mi West 4.6 mph - N/A Snow Light Snow
7:00 PM 31 °F - 24 °F 66% 30.03 in 3 mi 2.2 mph - - Snow Light Snow
7:00 PM 32.0 °F 28.7 °F 24.8 °F 75% 29.98 in 2.8 mi WNW 3.5 mph - N/A Snow Light Snow
7:30 PM 30.2 °F 26.7 °F 24.8 °F 80% 29.98 in 2.8 mi WNW 3.5 mph - N/A Snow Light Snow
8:00 PM 30 °F - 26 °F 78% 30.02 in 4 mi 2.2 mph - - Snow Light Snow
8:00 PM 30.2 °F 26.7 °F 26.6 °F 86% 29.98 in 3.7 mi West 3.5 mph - N/A Snow Light Snow
8:30 PM 28.4 °F - 24.8 °F 86% 29.98 in 4.3 mi West 1.2 mph - N/A Snow Light Snow
9:00 PM 30 °F - 27 °F 82% 30.04 in 3 mi Calm Calm - - Snow Light Snow
9:00 PM 30.2 °F - 26.6 °F 86% 29.98 in 2.8 mi Variable 1.2 mph - N/A Snow Light Snow
9:30 PM 32.0 °F 28.7 °F 26.6 °F 80% 29.98 in 5.0 mi NNW 3.5 mph - N/A Snow Light Snow
10:00 PM 32 °F - 26 °F 69% 30.04 in 7 mi NNE 13.4 mph - - Snow Light Snow
10:00 PM 32.0 °F 22.1 °F 24.8 °F 75% 29.98 in 6.2 mi NNE 13.8 mph - N/A Snow Light Snow
10:30 PM 32.0 °F 21.6 °F 24.8 °F 75% 29.98 in 6.2 mi NNE 15.0 mph - N/A   Mostly Cloudy
11:00 PM 32 °F - 24 °F 63% 30.05 in 7 mi NNE 13.4 mph - - Snow Light Snow
11:00 PM 32.0 °F 21.2 °F 24.8 °F 75% 30.01 in 6.2 mi NNE 16.1 mph 29.9 mph N/A Snow Light Snow
11:30 PM 32.0 °F 20.8 °F 21.2 °F 64% 30.01 in 6.2 mi North 17.3 mph - N/A   Mostly Cloudy